DateTimeUTC,F1_A11,F1_S11,BsB_S11,BsG_S11,BsR_S11,BbsB_S11,BbsG_S11,BbsR_S11,BaB_A11,BaG_A11,BaR_A11,Tu_S11,T_S11,Uu_S11,U_S11,P_S11,T1_A11
2021-02-19T19:00:00Z,00000200,21000000,,,,,,,-000.09,0000.20,0000.03,17.2,24.5,,00.0,0631.1,31.0
2021-02-19T19:01:00Z,00000200,21000000,,,,,,,-000.65,-000.60,-000.21,17.2,24.6,,00.0,0631.1,31.0
2021-02-19T19:02:00Z,00000200,21000000,,,,,,,0000.43,0000.03,-000.05,17.2,24.6,,00.0,0631.1,31.0
2021-02-19T19:03:00Z,00000200,61000000,,,,,,,-000.18,0000.12,-000.13,17.2,24.6,,00.0,0631.1,31.0
2021-02-19T19:04:00Z,00000200,41000000,-000.29,0000.00,-000.34,0000.07,-000.14,-000.13,0000.10,0000.17,0000.52,17.6,24.5,,00.0,0632.0,31.0
2021-02-19T19:05:00Z,00000200,01000000,0000.12,-000.02,0000.02,0000.22,0000.05,-000.20,-000.29,-000.14,-000.17,17.7,24.4,,00.0,0632.1,31.1
2021-02-19T19:06:00Z,00000200,01000000,-000.70,-000.01,-000.08,-000.21,-000.14,-000.01,0000.10,-000.03,-000.08,17.7,24.4,,00.0,0632.2,31.1
2021-02-19T19:07:00Z,00000200,01000000,-000.35,0000.23,0000.07,0000.04,-000.05,0000.14,-000.01,-000.21,-000.19,17.7,24.4,,00.0,0632.1,31.0
2021-02-19T19:08:00Z,00000200,01000000,-000.41,0000.33,-000.30,0000.12,-000.02,0000.00,-000.30,0000.10,0000.20,17.6,24.4,,00.0,0632.2,31.0
2021-02-19T19:09:00Z,00000200,01000000,-000.09,-000.07,-000.15,0000.32,-000.03,0000.06,0000.02,-000.29,-000.08,17.7,24.4,,00.0,0632.2,31.0
2021-02-19T19:10:00Z,00000200,01000000,0000.46,0000.45,-000.41,0000.42,-000.04,-000.01,0000.21,0000.05,-000.36,17.6,24.4,,00.0,0632.3,31.0
2021-02-19T19:11:00Z,00000200,01000000,-000.00,0000.29,-000.14,-000.04,-000.12,-000.07,-000.12,-000.28,0000.06,17.6,24.4,,00.0,0632.3,31.0
2021-02-19T19:12:00Z,00000200,01000000,0000.10,0000.13,0000.04,-000.09,-000.21,0000.07,-000.37,0000.14,-000.06,17.6,24.4,,00.0,0632.3,31.0
2021-02-19T19:13:00Z,00000200,01000000,0001.04,0000.21,-000.06,0000.14,0000.06,-000.35,0000.01,-000.29,-000.31,17.6,24.4,,00.0,0632.3,31.0
2021-02-19T19:14:00Z,00000200,01000000,0000.04,-000.05,0000.05,-000.17,-000.02,0000.12,-000.09,0000.10,0000.30,17.6,24.4,,00.0,0632.4,31.0
2021-02-19T19:15:00Z,00000200,01000000,0000.20,0000.21,0000.00,-000.19,-000.07,0000.00,0000.18,0000.06,0000.32,17.5,24.4,,00.0,0632.4,31.1
2021-02-19T19:16:00Z,00000200,01000000,0000.41,0000.26,0000.07,-000.03,0000.12,-000.05,-000.06,-000.17,-000.59,17.5,24.3,,00.0,0632.4,31.0
2021-02-19T19:17:00Z,00000200,01000000,0000.13,0000.36,-000.22,0000.15,-000.05,-000.15,0000.12,0000.25,0000.07,17.6,24.3,,00.0,0632.4,31.0
2021-02-19T19:18:00Z,00000200,01000000,0000.12,0000.14,-000.06,-000.03,-000.21,0000.14,-000.25,0000.09,0000.61,17.7,24.4,,00.0,0632.4,31.0
2021-02-19T19:19:00Z,00000200,01000000,-000.14,0000.18,-000.18,0000.04,0000.01,-000.02,0000.19,-000.24,-000.56,17.7,24.4,,00.0,0632.4,31.0
2021-02-19T19:20:00Z,00000200,01000000,-000.12,0000.33,-000.05,0000.52,0000.06,-000.03,0000.07,-000.10,0000.60,17.7,24.4,,00.0,0632.4,31.0
2021-02-19T19:21:00Z,00000200,01000000,0000.35,0000.08,-000.10,0000.27,-000.10,0000.01,0000.24,0000.40,-000.26,17.7,24.4,,00.0,0632.4,31.0
2021-02-19T19:22:00Z,00000200,01000000,0000.07,0000.10,0000.11,0000.06,0000.16,-000.06,-000.29,-000.27,0000.08,17.7,24.4,,00.0,0632.4,31.0
2021-02-19T19:23:00Z,00000200,01000000,0000.14,0000.23,-000.03,-000.26,0000.08,-000.27,-000.21,0000.07,-000.48,17.7,24.4,,00.0,0632.5,31.0
2021-02-19T19:24:00Z,00000200,01000000,-000.05,0000.31,0000.06,-000.13,0000.05,-000.10,-000.07,-000.07,0000.33,17.7,24.4,,00.0,0632.5,31.0
2021-02-19T19:25:00Z,00000200,01000000,0000.24,0000.09,-000.29,-000.18,0000.02,-000.12,0000.06,0000.07,-000.19,17.7,24.4,,00.0,0632.5,31.0
2021-02-19T19:26:00Z,00000200,01000000,0000.30,0000.15,-000.19,-000.15,-000.01,-000.01,0000.09,-000.01,0000.34,17.6,24.4,,00.0,0632.5,31.0
2021-02-19T19:27:00Z,00000200,01000000,0000.06,0000.20,-000.00,-000.11,-000.23,-000.14,0000.25,0000.28,-000.01,17.6,24.4,,00.0,0632.5,31.0
2021-02-19T19:28:00Z,00000200,01000000,-000.24,0000.22,-000.30,0000.13,-000.19,0000.08,-000.10,0000.06,-000.27,17.6,24.4,,00.0,0632.5,31.0
2021-02-19T19:29:00Z,00000200,01000000,0000.30,0000.02,-000.34,-000.29,0000.16,-000.20,-000.06,-000.45,0000.18,17.6,24.4,,00.0,0632.5,31.0
2021-02-19T19:30:00Z,00000200,01000000,-000.21,0000.05,-000.22,0000.11,-000.10,-000.12,0000.03,0000.21,0000.03,17.6,24.4,,00.0,0632.5,31.0
2021-02-19T19:31:00Z,00000200,01000000,0000.21,0000.12,-000.03,0000.31,-000.09,0000.12,-000.03,-000.13,0000.08,17.6,24.3,,00.0,0632.5,31.0
2021-02-19T19:32:00Z,00000200,01000000,0000.30,0000.02,0000.14,-000.17,-000.15,0000.20,-000.05,-000.05,-000.40,17.6,24.3,,00.0,0632.6,31.0
2021-02-19T19:33:00Z,00000200,01000000,0000.31,-000.14,0000.16,-000.13,-000.08,-000.12,0000.08,0000.06,0000.03,17.5,24.3,,00.0,0632.6,31.0
2021-02-19T19:34:00Z,00000200,01000000,-000.32,0000.17,-000.03,-000.12,-000.13,-000.21,0000.07,-000.09,0000.21,17.5,24.3,,00.0,0632.6,31.0
2021-02-19T19:35:00Z,00000200,01000000,0000.22,0000.05,-000.19,0000.42,-000.12,-000.01,-000.02,0000.04,-000.09,17.5,24.3,,00.0,0632.6,31.0
2021-02-19T19:36:00Z,00000200,01000000,-000.00,0000.13,-000.11,0000.16,-000.27,-000.05,-000.18,-000.29,0000.13,17.5,24.3,,00.0,0632.6,31.0
2021-02-19T19:37:00Z,00000200,01000000,0000.22,0000.30,-000.17,0000.33,-000.02,-000.16,-000.14,0000.05,-000.23,17.5,24.3,,00.0,0632.6,31.0
2021-02-19T19:38:00Z,00000200,01000000,0000.57,-000.04,-000.07,0000.46,-000.17,0000.03,-000.01,-000.01,0000.03,17.5,24.3,,00.0,0632.6,31.0
2021-02-19T19:39:00Z,00000200,01000000,0000.17,0000.03,-000.11,-000.10,0000.03,-000.18,-000.22,-000.02,-000.04,17.5,24.3,,00.0,0632.6,31.0
2021-02-19T19:40:00Z,00000200,01000000,-000.04,0000.12,-000.25,-000.22,-000.18,-000.08,0000.08,-000.03,0000.09,17.5,24.3,,00.0,0632.6,31.0
2021-02-19T19:41:00Z,00000200,01000000,0000.20,0000.17,0000.12,0000.26,-000.16,0000.13,0000.29,-000.27,-000.04,17.4,24.3,,00.0,0632.6,31.0
2021-02-19T19:42:00Z,00000200,01000000,0000.11,0000.08,-000.03,0000.44,-000.24,-000.24,-000.05,0000.73,-000.19,17.4,24.3,,00.0,0632.6,31.0
2021-02-19T19:43:00Z,00000200,01000000,-000.22,0000.08,0000.22,-000.10,0000.07,0000.17,-000.04,-000.35,-000.11,17.4,24.2,,00.0,0632.7,31.0
2021-02-19T19:44:00Z,00000200,01000000,0000.12,-000.01,-000.07,0000.10,-000.07,-000.15,-000.18,0000.07,0000.06,17.4,24.2,,00.0,0632.7,31.0
2021-02-19T19:45:00Z,00000200,01000000,-000.16,0000.23,-000.27,0000.17,-000.04,-000.27,-000.28,-000.55,-000.03,17.4,24.2,,00.0,0632.7,31.0
2021-02-19T19:46:00Z,00000200,01000000,0000.75,0000.29,-000.24,-000.01,-000.16,-000.09,0000.20,-000.06,0000.23,17.4,24.2,,00.0,0632.7,31.0
2021-02-19T19:47:00Z,00000200,01000000,-000.08,-000.28,-000.31,-000.29,-000.13,-000.04,0000.13,0000.29,-000.01,17.4,24.2,,00.0,0632.7,31.0
2021-02-19T19:48:00Z,00000200,01000000,-000.30,0000.26,-000.21,-000.22,0000.23,-000.05,0000.08,0000.37,-000.01,17.5,24.2,,00.0,0632.7,31.0
2021-02-19T19:49:00Z,00000200,01000000,0000.15,0000.06,0000.02,-000.39,0000.02,0000.04,0000.05,-000.04,0000.17,17.6,24.3,,00.0,0632.7,31.0
2021-02-19T19:50:00Z,00000200,01000000,-000.27,0000.12,0000.26,0000.13,0000.08,0000.16,-000.17,-000.12,-000.46,17.7,24.3,,00.0,0632.7,31.1
2021-02-19T19:51:00Z,00000200,01000000,0000.11,-000.14,-000.23,0000.31,-000.04,-000.01,0000.08,0000.46,0000.71,17.7,24.3,,00.0,0632.7,31.0
2021-02-19T19:52:00Z,00000200,01000000,-000.44,0000.01,0000.09,0000.27,0000.05,0000.14,0000.18,-000.49,-000.51,17.7,24.3,,00.0,0632.7,31.0
2021-02-19T19:53:00Z,00000200,01000000,0000.55,0000.21,-000.21,0000.02,0000.05,-000.20,0000.15,0000.12,0000.47,17.7,24.4,,00.0,0632.7,31.0
2021-02-19T19:54:00Z,00000200,01000000,0000.03,0000.26,-000.14,0000.73,0000.05,-000.01,-000.21,-000.27,-000.18,17.7,24.4,,00.0,0632.7,31.0
2021-02-19T19:55:00Z,00000200,01000000,-000.19,-000.03,-000.05,0000.16,0000.11,-000.16,0000.04,-000.07,-000.19,17.7,24.4,,00.0,0632.6,31.0
2021-02-19T19:56:00Z,00000200,01000000,0000.63,0000.03,-000.06,0000.08,0000.20,0000.19,-000.01,0000.41,-000.19,17.6,24.3,,00.0,0632.6,31.1
2021-02-19T19:57:00Z,00000200,41000000,,,,,,,0000.11,0000.27,0000.38,17.7,24.4,,00.0,0632.6,31.0
2021-02-19T19:58:00Z,00000200,61000000,,,,,,,-000.09,-000.31,-000.06,17.3,24.4,,00.0,0631.8,31.0
2021-02-19T19:59:00Z,00000200,21000000,,,,,,,0000.19,0000.02,-000.11,17.3,24.5,,00.0,0631.8,31.0
